{"data":{"norad_id":61000,"epoch":"2026-05-24T19:59:52.914048Z","epoch_age_seconds":93002,"freshness":"FRESH","line1":"1 61000U 24158L   26144.83325132  .00001624  00000+0  18263-4 0  9997","line2":"2 61000  53.1588 265.9159 0001777  52.9766 307.1414 15.69717655 99610","mean_motion":15.69717655,"eccentricity":0.0001777,"inclination_deg":53.1588,"raan_deg":265.9159,"arg_perigee_deg":52.9766,"mean_anomaly_deg":307.1414,"bstar":1.8263e-5,"rev_number":9961,"period_min":91.736242846807,"perigee_km":358.50753033316,"apogee_km":360.90215932481,"semimajor_km":6737.841844829,"source":"CELESTRAK","updated_at":"2026-05-25T13:38:19.324208Z"}}